IRIDIUM 165 (43572 NORAD) Tracking and Keplerian Element Data

This shows tracking and keplerian element data for the satellite.

Feedback or suggestion? Click here.




ElementValue
Catalog43572
NameIRIDIUM 165
Epoch Orbit16510
Epoch Day261.93635449
Epoch Year2021
RAAN60.666
Inclination86.3943
Eccentricity0.0002229
Argument of Perigee96.4562
Mean Anonmoly263.6888
Mean Motion14.34216698
Decay Rate-6.1E-07
L11 43572U 18061D 21261.93635449 -.00000061 00000-0 -28716-4 0 9999
L22 43572 86.3943 60.6660 0002229 96.4562 263.6888 14.34216698165105

Live tracking and technical data element details for IRIDIUM 165 (NORAD 43572). IRIDIUM 165 can be tracked NOW for your location showing map with azimuth and elevation plus other details from your city location.

Track the satellite on the map from your city or location and see movement details for azimuth, elevation, latitude, longitude, range, height, and movement on the map or in text.







IsCatalogInMostPopularTable: catalog: 43572, numindb: 535
Update: records affected: 1



GetName: 43572 IRIDIUM 165

Hit Count: updated at: Sun, 26 Sep 2021 00:33:14 GMT